{"data":{"norad_id":60308,"intl_designator":"2024-133H","name":"STARLINK-11192 [DTC]","alt_names":[],"object_type":"PAYLOAD","status":"ACTIVE","operator":null,"country":"US","launch_date":"2024-07-28","launch_site_code":"AFWTR","launch_vehicle":null,"mission":null,"orbit_class":"UNKNOWN","rcs_meters":null,"size_class":null,"mass_kg":null,"dimensions":null,"purposes":["comms"],"wikipedia_slug":null,"has_3d_model":false,"image_url":null,"decayed_at":null,"tle_current":{"epoch":"2026-05-25T03:25:55.964640Z","epoch_age_seconds":55931,"freshness":"FRESH","line1":"1 60308U 24133H   26145.14300885  .00000847  00000+0  11850-4 0  9994","line2":"2 60308  53.1588 129.2068 0001161  59.2740 300.8392 15.69705238105741","mean_motion":15.69705238,"eccentricity":0.0001161,"inclination_deg":53.1588,"raan_deg":129.2068,"arg_perigee_deg":59.274,"mean_anomaly_deg":300.8392,"bstar":1.185e-5,"rev_number":10574,"period_min":91.736968517398,"perigee_km":358.95810991191,"apogee_km":360.52264503896,"semimajor_km":6737.8773774754,"source":"CELESTRAK","updated_at":"2026-05-25T13:38:19.229451Z"}}}